Lapse_Rate
6.8 6.9 7.1 7.4 7.6 8.3 9.2 9.6 9.3 9.1 8.5 8.0 8.2 7.9 7.5 7.7 6.5 6.8 6.3 6.3 6.2 5.8 5.7 5.8 5.5 5.8 5.6 5.3 5.4 5.7 5.8 5.6 5.5 5.2 5.1 5.1 5.1 5.1 5.2 5.2 5.3 5.5 5.3 5.5
7.0 7.2 7.3 7.7 8.1 8.4 9.0 9.1 8.9 9.4 8.6 8.9 8.5 8.8 8.8 7.2 7.7 6.5 5.6 6.7 6.2 6.0 5.9 5.9 5.5 5.7 6.0 5.9 5.7 5.5 5.8 5.6 5.6 5.3 5.4 5.2 5.1 5.1 5.1 5.3 5.3 5.4 5.4 5.5
7.2 7.5 7.7 7.8 8.2 8.4 8.6 9.3 9.3 9.4 9.6 9.1 9.3 8.9 8.6 7.7 7.4 7.8 7.0 6.2 6.6 6.2 6.1 6.0 5.7 5.7 6.0 5.9 5.8 5.6 5.9 5.9 5.6 5.6 5.5 5.6 5.5 5.4 5.2 5.5 5.5 5.2 5.0 6.0
7.4 7.7 8.1 8.3 8.6 8.8 8.6 9.1 9.7 9.5 9.0 8.8 9.1 8.5 8.5 8.3 8.1 7.9 7.8 6.4 6.7 6.5 6.2 6.3 6.3 6.0 6.2 5.9 5.9 5.6 5.9 5.9 5.9 5.7 5.6 5.6 5.3 5.2 5.0 5.0 5.3 5.2 4.9 5.3
7.7 7.9 8.2 8.4 8.6 8.6 8.4 8.9 8.8 8.6 8.5 8.4 8.9 8.7 8.7 8.1 7.9 7.8 7.1 7.3 6.5 6.6 6.5 6.5 6.3 6.3 6.1 6.1 5.9 5.6 5.8 5.9 6.1 6.0 5.7 5.6 5.5 5.1 5.0 5.0 5.1 5.2 5.2 5.4
7.6 8.0 8.1 8.4 8.6 8.7 8.7 8.7 8.7 8.8 8.8 8.2 8.7 8.9 8.4 8.2 8.2 8.2 7.7 7.7 7.0 6.2 6.3 6.7 6.4 6.4 6.3 5.9 5.9 5.7 5.7 5.9 6.0 6.0 6.1 5.9 5.5 5.6 5.2 5.4 5.3 5.5 5.3 5.7
7.9 8.0 8.4 8.7 8.9 8.9 8.8 8.6 8.4 7.5 7.6 8.3 8.9 8.7 8.7 8.8 8.5 8.2 7.8 7.5 7.9 6.7 6.1 6.6 6.1 5.9 6.2 6.0 5.9 5.6 5.5 5.8 6.0 6.1 6.0 6.1 6.1 5.8 5.7 6.0 5.7 6.0 5.4 5.0
8.1 8.0 8.7 9.3 9.1 9.0 8.7 8.6 8.4 7.1 7.7 8.5 9.2 8.5 9.1 9.3 8.9 8.4 8.2 8.0 7.6 6.9 6.9 7.3 6.7 6.3 6.0 6.1 6.3 5.6 5.5 5.9 6.0 6.1 6.0 6.0 6.0 6.0 5.8 5.8 5.5 5.7 5.7 5.6
8.5 8.2 8.9 9.5 9.5 9.2 8.9 8.6 8.7 8.7 9.3 9.0 9.1 9.1 9.1 9.0 8.6 8.7 8.7 8.1 7.6 7.8 7.5 7.2 6.8 6.5 6.1 6.3 6.3 6.0 5.8 5.8 6.0 5.9 5.9 6.1 6.2 5.9 5.8 5.7 5.5 5.3 5.9 6.0
9.0 8.8 8.9 9.3 9.5 9.6 9.2 9.0 8.8 9.2 8.0 7.6 8.9 9.5 9.4 9.2 9.2 8.9 8.8 8.5 7.0 7.9 7.8 7.6 7.1 6.8 6.5 6.2 6.0 6.2 6.2 6.1 6.0 6.1 6.0 5.9 6.1 6.0 6.1 6.1 6.1 5.9 6.0 5.7
9.5 9.8 8.9 9.3 9.6 9.8 9.6 9.1 9.2 8.8 9.0 7.8 7.5 8.8 9.4 9.5 9.4 9.1 8.7 8.4 7.7 8.2 7.6 7.7 7.3 7.1 6.6 6.3 6.3 6.6 6.6 6.5 6.4 6.2 6.2 6.2 6.1 6.2 6.2 6.2 6.1 5.9 5.9 5.8
9.2 8.8 9.5 9.6 9.3 9.5 9.7 9.7 9.4 9.1 8.7 9.1 9.3 8.9 9.3 9.0 8.9 9.0 8.9 8.2 8.0 7.8 7.2 7.3 7.3 6.9 6.4 6.4 6.4 6.8 6.4 6.3 6.3 6.3 6.2 6.2 6.3 6.2 6.1 6.1 6.1 6.2 6.0 5.8
8.2 8.7 8.9 8.9 9.5 9.5 9.6 9.5 9.6 9.6 9.5 9.3 8.5 9.0 9.5 9.2 9.2 9.0 8.7 8.0 8.1 7.5 7.2 7.2 7.2 7.0 6.8 6.4 6.8 6.6 6.5 6.2 6.0 6.1 6.2 6.1 6.1 6.0 5.9 6.1 6.0 6.1 6.1 6.0
7.6 7.9 8.3 8.3 8.6 8.7 8.7 8.7 9.0 9.2 9.1 9.6 9.5 9.3 9.2 9.4 9.3 8.9 8.9 8.8 8.7 7.5 7.6 7.6 7.4 7.1 7.2 6.6 6.0 6.3 6.5 6.3 6.1 6.0 6.3 6.1 5.9 5.9 6.1 6.1 6.0 6.1 6.3 6.1
6.9 6.8 7.4 7.6 7.7 8.4 8.1 8.4 8.5 8.9 9.2 9.0 9.3 9.5 9.5 9.6 9.2 8.6 9.0 8.9 8.7 8.2 8.0 7.6 7.2 7.1 7.1 6.7 6.5 6.3 6.0 6.0 6.1 6.1 6.3 6.2 5.8 6.1 5.9 6.0 5.9 5.9 6.0 5.9
6.9 6.4 6.6 6.7 6.8 7.5 7.9 8.0 8.5 8.6 9.1 9.1 9.1 9.3 9.4 9.6 9.5 9.2 8.8 8.3 8.8 8.7 8.1 7.4 7.2 7.0 7.0 6.6 6.7 6.3 5.9 6.1 6.2 6.0 6.1 6.1 5.7 6.3 5.9 6.1 6.0 6.1 6.0 5.8
7.3 7.0 6.9 6.4 6.9 6.7 6.8 7.6 8.2 8.5 8.7 9.2 8.9 9.2 9.5 9.5 9.5 9.2 9.0 8.8 8.6 9.0 8.5 7.4 7.4 6.9 6.7 6.8 6.5 6.1 6.1 6.0 6.0 5.9 6.0 6.1 5.8 6.1 6.2 6.3 6.2 6.3 6.2 6.1
6.4 7.1 7.3 6.5 7.2 6.4 6.6 7.7 8.1 8.3 8.4 8.6 8.4 8.8 8.6 9.5 9.3 9.2 9.1 8.8 8.7 7.9 8.4 7.8 7.4 7.1 6.7 6.5 6.3 6.3 6.5 6.5 6.0 5.9 6.1 6.0 6.1 6.1 6.1 6.1 6.1 6.2 6.0 5.9
7.4 7.2 7.4 7.3 7.4 6.5 6.8 7.3 7.9 7.8 8.0 8.6 8.9 8.8 8.8 8.8 9.4 8.9 8.9 8.5 7.4 7.6 8.2 8.0 7.6 7.1 6.9 6.9 6.8 6.7 6.6 6.5 6.4 6.3 6.2 6.0 5.9 6.0 6.3 6.2 6.0 5.9 5.8 5.8
7.8 8.1 8.4 8.0 8.0 6.9 6.7 7.4 7.9 7.8 7.4 8.3 8.7 8.8 8.5 8.4 9.4 9.3 8.7 7.9 7.7 8.0 8.0 8.0 7.8 7.4 7.4 7.1 6.8 6.6 6.4 6.3 6.2 6.3 6.4 6.4 6.3 6.3 6.2 6.1 6.1 6.1 6.0 5.9
8.1 8.5 8.9 8.7 8.0 7.7 7.5 7.1 7.7 8.0 7.2 8.1 8.0 8.3 8.0 8.3 8.5 9.1 9.0 9.1 8.4 8.2 7.4 8.0 7.7 7.7 7.4 6.9 6.6 6.7 6.7 6.6 6.4 6.3 6.2 6.1 6.1 6.1 6.1 6.2 6.2 6.2 6.3 6.2
7.2 7.7 8.0 8.3 8.0 6.9 7.4 7.4 7.4 7.0 6.9 7.3 7.3 8.0 7.8 7.9 8.2 8.1 8.2 7.7 7.7 7.7 7.9 8.0 8.0 7.6 7.0 6.4 6.4 6.4 6.3 6.3 6.2 6.1 6.0 6.1 6.2 6.3 6.3 6.3 6.3 6.3 6.3 6.1
7.0 6.8 6.6 7.2 7.1 7.1 7.1 7.4 7.3 6.8 6.6 6.8 7.1 7.3 7.6 8.1 8.1 8.1 7.8 8.0 7.7 7.8 8.0 7.3 7.7 7.3 6.9 6.5 6.5 6.4 6.3 6.2 6.2 6.2 6.3 6.3 6.3 6.4 6.4 6.4 6.4 6.4 6.5 6.4
6.3 6.4 6.4 6.5 7.0 7.0 6.7 6.0 6.9 6.8 6.7 6.7 6.9 7.1 7.6 7.7 8.0 7.5 7.8 8.0 8.3 8.2 7.0 7.4 7.3 7.3 7.0 6.8 6.6 6.4 6.3 6.2 6.3 6.4 6.4 6.5 6.5 6.6 6.6 6.6 6.7 6.7 6.6 6.6
6.4 6.0 6.2 5.8 6.1 6.6 6.8 6.5 6.4 6.5 6.3 6.8 6.5 7.5 7.3 7.8 7.4 7.6 7.2 7.6 8.2 8.4 7.4 7.6 7.9 7.2 7.2 6.9 6.6 6.4 6.4 6.4 6.5 6.5 6.7 6.8 6.8 6.8 6.7 6.7 6.6 6.5 6.6 6.5
7.0 7.1 7.1 6.7 6.6 6.6 6.6 6.4 6.3 6.1 6.0 6.0 6.8 7.4 7.7 7.4 7.3 7.3 6.3 6.8 7.3 7.2 7.1 7.6 8.1 7.4 7.4 7.0 6.6 6.5 6.6 6.7 6.7 6.7 6.8 6.9 6.9 6.9 6.9 6.7 6.5 6.4 6.3 6.3
Wind_Speed
9 4 7 14 14 15 15 8 9 10 14 10 11 10 13 14 3 9 8 8 10 7 9 9 14 17 15 14 11 13 11 8 7 4 3 2 3 2 2 6 8 8 8 14
7 8 14 16 16 13 11 5 9 6 10 11 8 7 15 15 7 1 3 10 15 9 9 8 9 16 17 15 13 12 11 10 7 4 3 2 3 2 3 4 7 10 10 20
9 11 15 16 17 10 11 5 8 10 4 3 3 2 9 3 3 5 11 12 9 12 13 14 8 17 17 16 16 13 14 11 8 6 3 1 1 3 2 3 3 4 11 21
10 15 16 13 7 6 7 11 9 7 7 3 3 4 3 6 5 6 9 15 11 14 16 13 14 12 18 16 16 15 14 10 9 8 6 5 4 3 3 3 1 3 7 15
13 12 11 9 8 9 10 8 9 4 5 6 7 2 3 1 7 11 14 10 14 16 21 18 17 13 18 17 15 15 13 12 7 8 9 5 4 2 2 2 4 6 4 7
14 15 12 8 10 7 7 6 9 4 1 4 5 2 4 7 7 4 5 9 19 13 21 21 19 16 18 17 15 15 14 13 8 9 8 8 9 5 1 1 5 4 4 5
13 20 17 15 8 6 6 4 4 5 3 7 5 1 7 15 18 27 19 22 20 14 18 22 21 17 18 19 17 15 15 12 9 9 8 8 7 6 6 3 3 1 2 2
10 13 14 13 15 9 7 6 5 7 4 6 5 7 7 13 12 25 23 21 18 24 17 21 20 17 21 21 19 18 16 13 12 9 8 7 7 4 5 6 4 3 3 4
8 15 20 19 10 11 8 6 9 7 6 6 6 6 7 11 9 8 19 23 24 21 17 22 18 19 21 21 21 18 17 14 13 11 7 7 6 6 6 7 4 3 2 2
10 10 13 18 7 9 10 7 3 4 3 7 7 4 5 5 7 12 12 22 11 15 20 21 21 18 18 19 19 18 17 16 15 12 9 7 7 7 6 4 5 4 5 2
8 8 12 8 4 9 2 4 5 2 3 3 4 4 6 11 6 9 11 16 11 1 14 18 16 16 18 17 18 17 16 14 13 11 11 8 7 7 6 5 5 6 5 5
2 4 5 12 10 11 6 11 10 5 9 4 4 6 6 8 11 13 9 11 9 10 4 15 17 18 16 17 18 17 15 15 14 12 13 11 10 7 7 7 7 6 6 6
8 4 4 11 7 8 6 6 5 6 5 9 4 6 6 6 15 13 15 11 8 8 6 17 18 19 17 17 17 16 15 14 14 11 11 11 11 9 8 7 7 7 7 7
8 4 5 6 9 6 7 8 9 12 6 5 8 7 8 9 20 14 10 12 10 5 8 17 17 17 13 9 10 15 14 14 12 12 9 9 8 8 8 7 7 6 6 7
13 5 8 10 12 19 16 16 14 18 10 6 11 7 5 6 15 17 18 13 11 8 9 15 16 14 15 13 13 8 13 12 13 10 8 8 10 8 7 6 6 7 6 6
10 6 8 10 13 15 21 19 18 18 13 9 16 11 9 11 10 18 18 16 11 10 7 17 17 16 15 13 12 13 11 10 9 8 9 8 7 7 6 6 4 3 4 3
7 6 6 7 11 15 14 8 11 15 16 9 15 11 6 6 8 13 10 9 8 8 8 9 16 16 14 15 13 10 9 9 9 7 6 7 7 6 6 5 4 4 4 3
12 10 4 9 3 8 7 11 16 11 9 7 24 15 13 10 11 8 8 8 3 10 8 10 12 12 14 13 11 10 10 8 8 7 7 7 6 6 5 6 5 3 2 3
14 9 8 9 8 15 22 16 9 12 25 18 13 10 14 8 8 6 4 18 17 21 8 8 10 10 12 14 12 10 8 8 7 7 7 7 7 7 6 6 5 3 2 2
11 12 9 9 8 22 12 7 15 13 15 12 9 15 14 4 3 4 6 11 6 13 8 10 11 8 9 14 14 13 11 10 8 7 8 7 7 7 6 5 5 3 2 4
9 5 9 12 6 8 5 12 8 2 7 16 10 12 10 11 5 4 10 11 13 10 13 10 7 7 11 12 14 12 11 11 8 7 7 7 7 7 7 6 4 4 4 3
4 5 2 2 1 9 5 5 3 6 14 13 17 9 7 3 10 10 8 9 11 6 10 8 9 9 10 12 12 11 10 8 8 8 7 7 7 5 5 7 4 3 3 2
4 4 4 2 3 2 4 2 4 7 10 12 14 16 8 6 6 13 10 7 12 8 7 10 11 8 7 7 10 11 7 8 8 9 8 7 7 6 5 6 5 3 4 4
3 5 5 5 9 7 5 4 3 3 7 16 16 16 10 7 13 6 14 16 16 15 20 15 15 12 8 7 7 8 10 9 9 8 7 7 7 6 6 5 5 5 4 3
8 4 10 7 12 11 3 4 4 6 7 16 16 18 15 8 9 3 10 18 21 25 12 7 15 13 9 8 8 9 8 9 8 7 7 6 6 7 6 6 4 4 2 4
6 9 6 5 7 2 4 4 4 7 9 13 11 19 16 12 2 10 7 9 8 2 3 6 12 16 11 11 9 8 8 8 8 6 5 5 5 4 5 4 3 8 5 5
Wind_Direction
246 209 239 248 253 259 278 236 324 184 199 196 196 217 188 158 304 228 179 193 181 215 167 164 143 143 142 128 139 135 132 137 138 150 142 142 166 176 176 186 193 153 157 126
256 235 236 255 270 283 302 337 305 278 182 191 216 246 169 148 172 249 262 199 198 202 158 174 152 150 151 142 149 136 138 149 154 164 168 149 154 193 174 207 206 197 159 144
234 245 248 242 255 262 286 249 265 267 217 204 204 152 128 343 211 167 253 242 216 196 173 175 184 161 153 153 152 148 151 163 168 178 152 152 73 38 43 3 230 196 167 156
242 253 255 279 264 264 270 294 290 336 4 275 157 261 207 171 237 226 247 219 194 206 187 182 187 169 161 161 150 153 154 164 177 183 165 160 145 164 203 178 298 232 183 140
254 266 275 264 257 270 269 284 293 243 275 316 286 136 54 45 223 192 207 233 220 216 179 186 183 182 164 159 156 158 161 161 168 168 171 156 170 176 116 142 233 238 205 190
274 283 280 261 295 255 291 268 308 285 358 313 291 186 173 186 221 192 240 197 224 233 185 178 186 180 165 162 158 158 167 167 172 173 182 167 176 184 192 359 195 226 196 199
264 261 260 260 275 282 312 310 306 322 335 244 230 63 223 216 188 192 200 211 213 219 190 176 180 183 160 164 165 166 166 171 169 167 183 186 175 159 176 199 146 290 204 187
277 291 244 238 213 193 218 203 188 253 257 266 97 227 247 210 224 189 206 211 208 220 191 181 173 171 163 166 167 172 170 171 173 168 184 194 190 170 188 209 184 185 205 196
237 270 289 299 199 174 241 259 235 262 276 298 251 264 38 223 272 183 187 202 204 187 172 174 171 166 168 167 169 172 172 169 172 169 167 198 197 186 207 217 183 192 118 173
228 246 258 277 173 211 167 213 321 309 259 269 292 322 185 93 97 84 77 71 341 183 163 165 171 170 164 162 169 168 172 170 171 168 174 184 195 201 220 204 212 217 147 161
321 230 254 254 238 208 193 216 252 228 193 220 300 283 214 183 177 107 103 119 222 47 175 165 168 165 160 156 164 167 168 165 172 169 177 179 184 202 213 207 224 225 189 182
156 241 273 227 243 266 238 197 192 151 277 241 207 271 149 183 127 126 129 130 188 245 228 175 163 167 158 154 160 167 166 173 176 177 176 181 184 191 209 206 207 222 223 204
332 314 359 333 312 258 249 285 250 199 193 235 216 259 216 220 139 150 147 190 221 227 282 182 160 167 164 165 158 166 168 177 176 176 175 185 187 186 200 211 208 209 209 214
7 303 217 231 259 309 311 342 312 282 292 239 237 249 210 219 155 154 181 181 193 238 192 150 157 165 160 125 150 170 174 170 170 173 168 176 186 189 197 206 216 220 206 210
354 327 334 326 322 310 298 297 285 259 249 281 265 275 169 145 146 187 189 176 192 205 136 158 156 162 162 162 169 162 167 165 165 163 175 185 191 191 197 207 198 223 204 175
326 318 340 323 326 314 311 278 283 290 286 286 298 264 206 193 150 155 173 178 168 148 144 162 157 165 165 168 182 158 153 160 156 171 191 174 170 178 194 206 215 226 227 216
298 294 315 283 324 334 293 290 255 271 292 268 284 278 231 141 155 142 138 99 7 139 148 135 154 163 165 170 166 158 156 150 164 166 156 152 161 185 186 193 202 220 226 223
276 278 266 279 27 263 254 329 335 325 308 326 295 315 326 138 137 126 97 117 191 255 156 132 151 148 154 158 149 144 142 144 150 159 160 162 174 181 178 183 196 189 171 209
237 243 257 251 225 264 281 294 311 336 321 299 264 5 355 126 94 91 167 139 189 247 161 142 151 150 152 155 150 146 146 150 155 165 165 169 170 180 179 176 175 173 163 222
302 231 217 240 224 251 286 340 329 343 296 6 1 38 358 216 100 231 213 174 87 32 146 137 151 158 151 162 155 151 157 161 170 171 168 165 167 175 173 173 172 182 184 224
286 281 226 235 251 285 51 343 314 156 311 337 322 70 27 343 246 192 77 34 43 54 310 130 133 140 156 153 153 152 151 159 164 156 160 164 166 166 160 162 174 189 208 220
308 316 329 342 126 272 11 0 46 338 326 335 336 9 20 79 140 115 118 81 65 343 16 119 123 128 140 144 144 142 146 154 156 160 155 142 137 145 155 159 161 140 152 223
351 25 313 301 245 39 40 40 72 47 341 311 320 313 346 108 114 148 140 142 92 32 30 288 135 131 137 150 154 143 152 133 129 123 134 140 145 154 151 150 159 189 218 222
353 56 354 337 335 290 290 153 105 49 320 305 317 308 333 53 125 186 134 145 132 162 214 232 149 150 150 153 141 143 138 134 133 141 152 158 165 180 173 184 188 193 217 186
294 161 217 222 238 261 209 62 19 327 313 299 315 319 329 34 116 164 185 173 172 188 198 206 155 149 156 147 140 143 139 136 144 154 171 180 182 189 196 203 196 200 168 180
248 260 281 272 259 182 170 195 204 292 267 271 299 317 324 318 114 153 249 232 213 160 288 304 166 150 156 152 139 144 144 146 151 167 176 189 189 192 185 178 185 46 70 139